| time (UTC) | temp F | wind direction | speed MPH | gust MPH | rain 1hr in | rain 24hr in | rain mn in | humidity % | barometer mb |
| 20260902110040 | 76 | 333 | 1.0 | 3.0 | 0.00 | 0.03 | 0.01 | 91 | 1015.3 |
| 20260902104539 | 76 | 303 | 1.0 | 2.0 | 0.00 | 0.03 | 0.01 | 91 | 1015.2 |
| 20260902103035 | 76 | 0 | 0.0 | 2.0 | 0.00 | 0.03 | 0.01 | 91 | 1015.1 |
| 20260902101534 | 76 | 303 | 0.0 | 2.0 | 0.00 | 0.03 | 0.01 | 91 | 1015.1 |
| 20260902100038 | 76 | 0 | 0.0 | 2.0 | 0.00 | 0.03 | 0.01 | 91 | 1015.0 |
| 20260902094538 | 76 | 0 | 0.0 | 0.0 | 0.00 | 0.03 | 0.01 | 91 | 1015.1 |
| 20260902093035 | 76 | 303 | 0.0 | 2.0 | 0.00 | 0.03 | 0.01 | 91 | 1015.0 |
| 20260902091547 | 76 | 0 | 0.0 | 0.0 | 0.00 | 0.03 | 0.01 | 91 | 1015.0 |
| 20260902090050 | 76 | 0 | 0.0 | 1.0 | 0.00 | 0.03 | 0.01 | 90 | 1014.7 |
| 20260902084538 | 76 | 0 | 0.0 | 0.0 | 0.00 | 0.03 | 0.01 | 90 | 1014.6 |
| 20260902083034 | 77 | 0 | 0.0 | 2.0 | 0.00 | 0.03 | 0.01 | 90 | 1014.4 |
| 20260902081540 | 77 | 303 | 0.0 | 2.0 | 0.00 | 0.03 | 0.01 | 90 | 1014.7 |
| 20260902080037 | 77 | 303 | 0.0 | 2.0 | 0.00 | 0.03 | 0.01 | 90 | 1014.5 |
| 20260902074547 | 77 | 0 | 0.0 | 2.0 | 0.00 | 0.03 | 0.01 | 90 | 1014.6 |
| 20260902073038 | 77 | 303 | 1.0 | 2.0 | 0.00 | 0.03 | 0.01 | 90 | 1014.8 |
| 20260902071534 | 77 | 303 | 1.0 | 3.0 | 0.00 | 0.03 | 0.01 | 90 | 1014.9 |
| 20260902070039 | 77 | 0 | 0.0 | 2.0 | 0.00 | 0.03 | 0.01 | 90 | 1015.0 |
| 20260902064539 | 76 | 331 | 1.0 | 4.0 | 0.00 | 0.03 | 0.01 | 90 | 1015.1 |
| 20260902063035 | 77 | 30 | 0.0 | 1.0 | 0.00 | 0.03 | 0.01 | 90 | 1015.1 |
| 20260902061543 | 77 | 0 | 0.0 | 2.0 | 0.00 | 0.03 | 0.01 | 90 | 1015.0 |
| 20260902060051 | 77 | 0 | 0.0 | 0.0 | 0.00 | 0.03 | 0.01 | 89 | 1015.1 |
| 20260902054541 | 77 | 0 | 0.0 | 2.0 | 0.00 | 0.03 | 0.01 | 89 | 1015.3 |
| 20260902053040 | 77 | 30 | 0.0 | 2.0 | 0.00 | 0.03 | 0.01 | 89 | 1015.4 |
| 20260902051540 | 77 | 30 | 0.0 | 2.0 | 0.01 | 0.03 | 0.01 | 89 | 1015.3 |
| 20260902050043 | 77 | 30 | 0.0 | 2.0 | 0.01 | 0.03 | 0.01 | 89 | 1015.3 |
| 20260902044539 | 77 | 30 | 0.0 | 2.0 | 0.01 | 0.03 | 0.01 | 89 | 1015.2 |
| 20260902043037 | 77 | 30 | 1.0 | 2.0 | 0.01 | 0.03 | 0.01 | 89 | 1015.2 |
| 20260902041539 | 77 | 0 | 0.0 | 0.0 | 0.00 | 0.02 | 0.00 | 89 | 1015.3 |
| 20260902040040 | 77 | 0 | 0.0 | 2.0 | 0.00 | 0.02 | 0.00 | 89 | 1015.3 |
| 20260902034540 | 77 | 30 | 1.0 | 2.0 | 0.00 | 0.02 | 0.02 | 88 | 1015.6 |
| 20260902033034 | 77 | 0 | 0.0 | 0.0 | 0.00 | 0.02 | 0.02 | 88 | 1015.8 |
| 20260902031538 | 77 | 0 | 0.0 | 0.0 | 0.00 | 0.02 | 0.02 | 88 | 1016.3 |
| 20260902030035 | 78 | 0 | 0.0 | 1.0 | 0.00 | 0.02 | 0.02 | 88 | 1016.3 |
| 20260902024538 | 78 | 30 | 0.0 | 2.0 | 0.00 | 0.02 | 0.02 | 88 | 1016.3 |
| 20260902023042 | 78 | 30 | 0.0 | 1.0 | 0.00 | 0.02 | 0.02 | 88 | 1016.1 |
| 20260902021539 | 78 | 0 | 0.0 | 2.0 | 0.00 | 0.02 | 0.02 | 87 | 1016.2 |
| 20260902020036 | 78 | 30 | 0.0 | 2.0 | 0.00 | 0.02 | 0.02 | 87 | 1016.3 |
| 20260902014541 | 78 | 0 | 0.0 | 2.0 | 0.00 | 0.02 | 0.02 | 87 | 1016.2 |
| 20260902013041 | 78 | 30 | 1.0 | 2.0 | 0.00 | 0.02 | 0.02 | 87 | 1016.1 |
| 20260902011539 | 78 | 0 | 0.0 | 2.0 | 0.01 | 0.02 | 0.02 | 86 | 1016.1 |
| 20260902010036 | 78 | 0 | 0.0 | 2.0 | 0.01 | 0.02 | 0.02 | 85 | 1016.0 |
| 20260902004538 | 78 | 352 | 0.0 | 2.0 | 0.02 | 0.02 | 0.02 | 84 | 1015.7 |
| 20260902003043 | 78 | 0 | 0.0 | 2.0 | 0.02 | 0.02 | 0.02 | 83 | 1016.0 |
| 20260902001550 | 79 | 0 | 0.0 | 3.0 | 0.01 | 0.01 | 0.01 | 82 | 1016.1 |
| 20260902000041 | 80 | 121 | 0.0 | 4.0 | 0.01 | 0.01 | 0.01 | 81 | 1015.9 |
| 20260901234537 | 81 | 26 | 1.0 | 4.0 | 0.00 | 0.00 | 0.00 | 80 | 1016.0 |
| 20260901233053 | 82 | 148 | 2.0 | 10.0 | 0.00 | 0.00 | 0.00 | 80 | 1015.8 |
| 20260901231537 | 83 | 352 | 4.0 | 10.0 | 0.00 | 0.00 | 0.00 | 80 | 1015.8 |
| 20260901230037 | 83 | 360 | 3.0 | 8.0 | 0.00 | 0.00 | 0.00 | 79 | 1015.8 |
| 20260901224537 | 83 | 44 | 2.0 | 7.0 | 0.00 | 0.00 | 0.00 | 78 | 1015.7 |
| 20260901223034 | 84 | 360 | 0.0 | 6.0 | 0.00 | 0.00 | 0.00 | 78 | 1015.5 |
| 20260901221539 | 84 | 360 | 2.0 | 6.0 | 0.00 | 0.00 | 0.00 | 77 | 1015.4 |
| 20260901220105 | 84 | 60 | 3.0 | 9.0 | 0.00 | 0.00 | 0.00 | 76 | 1015.2 |
| 20260901214538 | 84 | 84 | 2.0 | 6.0 | 0.00 | 0.00 | 0.00 | 76 | 1015.3 |
| 20260901213040 | 84 | 130 | 1.0 | 9.0 | 0.00 | 0.00 | 0.00 | 75 | 1015.3 |
| 20260901211539 | 84 | 0 | 1.0 | 4.0 | 0.00 | 0.00 | 0.00 | 75 | 1015.1 |
| 20260901210041 | 84 | 46 | 2.0 | 11.0 | 0.00 | 0.00 | 0.00 | 75 | 1015.3 |
| 20260901204534 | 85 | 42 | 2.0 | 8.0 | 0.00 | 0.00 | 0.00 | 75 | 1015.5 |
| 20260901203042 | 85 | 49 | 1.0 | 8.0 | 0.00 | 0.00 | 0.00 | 76 | 1015.6 |
| 20260901201539 | 85 | 65 | 2.0 | 9.0 | 0.00 | 0.00 | 0.00 | 76 | 1015.7 |
| 20260901200037 | 86 | 63 | 1.0 | 4.0 | 0.00 | 0.00 | 0.00 | 77 | 1015.8 |
| 20260901194540 | 85 | 5 | 2.0 | 6.0 | 0.00 | 0.00 | 0.00 | 76 | 1015.9 |
| 20260901193037 | 85 | 96 | 1.0 | 6.0 | 0.00 | 0.00 | 0.00 | 77 | 1016.0 |
| 20260901191537 | 85 | 0 | 0.0 | 2.0 | 0.00 | 0.00 | 0.00 | 77 | 1016.0 |
| 20260901190036 | 84 | 63 | 3.0 | 9.0 | 0.00 | 0.00 | 0.00 | 76 | 1016.1 |
| 20260901184534 | 84 | 340 | 1.0 | 4.0 | 0.00 | 0.00 | 0.00 | 76 | 1016.2 |
| 20260901183036 | 83 | 55 | 2.0 | 6.0 | 0.00 | 0.00 | 0.00 | 78 | 1016.3 |
| 20260901181540 | 83 | 360 | 2.0 | 5.0 | 0.00 | 0.00 | 0.00 | 78 | 1016.5 |
| 20260901180037 | 83 | 13 | 1.0 | 9.0 | 0.00 | 0.00 | 0.00 | 79 | 1016.6 |
| 20260901174534 | 83 | 9 | 4.0 | 10.0 | 0.00 | 0.00 | 0.00 | 79 | 1016.8 |
| 20260901173036 | 83 | 28 | 3.0 | 6.0 | 0.00 | 0.00 | 0.00 | 79 | 1017.1 |
| 20260901171547 | 83 | 304 | 1.0 | 3.0 | 0.00 | 0.00 | 0.00 | 78 | 1017.2 |
| 20260901170100 | 84 | 319 | 1.0 | 10.0 | 0.00 | 0.00 | 0.00 | 76 | 1017.3 |
| 20260901164541 | 86 | 9 | 4.0 | 10.0 | 0.00 | 0.00 | 0.00 | 74 | 1017.4 |
| 20260901163042 | 87 | 62 | 2.0 | 8.0 | 0.00 | 0.00 | 0.00 | 73 | 1017.4 |
| 20260901161539 | 87 | 71 | 4.0 | 11.0 | 0.00 | 0.00 | 0.00 | 75 | 1017.4 |
| 20260901160044 | 86 | 37 | 3.0 | 10.0 | 0.00 | 0.00 | 0.00 | 74 | 1017.4 |
| 20260901154537 | 86 | 348 | 3.0 | 9.0 | 0.00 | 0.00 | 0.00 | 74 | 1017.4 |
| 20260901153036 | 85 | 67 | 2.0 | 6.0 | 0.00 | 0.00 | 0.00 | 75 | 1017.6 |
| 20260901151540 | 86 | 281 | 3.0 | 12.0 | 0.00 | 0.00 | 0.00 | 75 | 1017.5 |
| 20260901150053 | 87 | 24 | 2.0 | 6.0 | 0.00 | 0.00 | 0.00 | 74 | 1017.4 |
| 20260901144544 | 87 | 11 | 4.0 | 9.0 | 0.00 | 0.00 | 0.00 | 75 | 1017.4 |
| 20260901143035 | 86 | 46 | 3.0 | 9.0 | 0.00 | 0.00 | 0.00 | 76 | 1017.2 |
| 20260901141537 | 85 | 333 | 2.0 | 6.0 | 0.00 | 0.00 | 0.00 | 79 | 1017.2 |
| 20260901140037 | 83 | 329 | 2.0 | 6.0 | 0.00 | 0.00 | 0.00 | 80 | 1017.0 |
| 20260901134542 | 83 | 10 | 1.0 | 6.0 | 0.00 | 0.00 | 0.00 | 81 | 1017.0 |
| 20260901133039 | 83 | 338 | 2.0 | 6.0 | 0.00 | 0.00 | 0.00 | 84 | 1016.6 |
| 20260901131546 | 82 | 45 | 1.0 | 5.0 | 0.00 | 0.00 | 0.00 | 86 | 1016.7 |
| 20260901130039 | 81 | 360 | 2.0 | 5.0 | 0.00 | 0.00 | 0.00 | 88 | 1016.6 |
| 20260901124536 | 81 | 28 | 1.0 | 4.0 | 0.00 | 0.00 | 0.00 | 89 | 1016.6 |
| 20260901123039 | 80 | 352 | 1.0 | 3.0 | 0.00 | 0.00 | 0.00 | 91 | 1016.6 |
| 20260901121537 | 79 | 32 | 1.0 | 4.0 | 0.00 | 0.00 | 0.00 | 91 | 1016.5 |
| 20260901120034 | 78 | 52 | 0.0 | 2.0 | 0.00 | 0.00 | 0.00 | 91 | 1016.3 |
| 20260901114540 | 78 | 0 | 0.0 | 0.0 | 0.00 | 0.00 | 0.00 | 91 | 1016.1 |
| 20260901113033 | 77 | 0 | 0.0 | 0.0 | 0.00 | 0.00 | 0.00 | 91 | 1015.9 |
| 20260901111540 | 77 | 0 | 0.0 | 0.0 | 0.00 | 0.00 | 0.00 | 90 | 1015.8 |